Theta_e
293 293 293 293 292 292 292 291 296 303 305 305 307 311 314 316 317 318 323 324 321 320 321 323 321 318 318 317 317 317 317 317 317 317 317 318 319 320 319 318 320 321 323 327 327 326 326 324 325 327 326 324 325 324 323 324 323 324 324 325 329 329 322 314 311 317 321 323 325 324 325 325 322 323 326 326 325 325 324 324 322 319 316 315 316 315 318
293 293 293 293 292 292 292 291 295 302 305 305 307 311 311 312 314 316 323 325 323 321 321 322 323 321 319 317 317 317 317 317 317 317 317 318 319 320 319 318 319 320 321 324 325 325 324 323 325 328 327 325 325 324 323 324 324 325 327 328 326 325 322 314 311 313 316 318 321 321 325 328 324 324 326 327 327 329 330 327 324 321 317 316 318 318 320
293 293 292 292 292 292 292 291 294 302 305 305 307 311 311 313 317 318 322 325 323 322 321 322 325 325 323 321 320 318 319 318 319 318 317 318 319 319 319 318 318 319 319 320 321 322 322 322 324 326 325 324 325 324 324 324 324 327 332 331 325 325 326 320 313 312 314 315 316 318 322 325 326 327 329 330 329 327 325 322 321 319 317 318 323 324 325
293 293 292 292 292 292 292 291 294 300 305 305 307 311 311 315 319 320 321 323 323 322 321 321 324 325 325 324 322 320 319 320 318 318 317 318 318 319 319 318 318 318 319 320 320 320 320 321 322 323 324 324 324 325 326 323 326 335 336 330 326 327 328 325 319 315 316 318 321 326 327 322 323 326 328 330 332 332 327 319 318 320 318 319 325 326 323
293 292 291 291 292 292 292 292 293 299 304 305 307 311 313 317 320 319 320 322 322 323 322 320 321 322 323 324 324 321 321 321 318 317 317 317 319 320 319 318 318 319 319 320 320 319 319 319 320 321 322 323 323 325 324 323 333 343 334 324 326 327 323 325 324 320 321 323 325 330 329 323 324 326 327 328 332 333 326 319 323 327 320 317 324 328 322
292 292 291 291 292 292 292 292 293 299 303 306 309 314 316 319 319 317 320 320 320 323 324 322 321 322 322 324 324 323 323 323 321 320 318 318 319 320 320 320 319 318 319 320 320 320 320 320 320 320 320 321 323 324 324 326 334 338 328 325 332 328 321 325 325 321 323 324 325 329 328 327 329 328 327 330 333 332 324 322 328 330 322 320 326 328 325
292 291 291 291 291 292 292 292 294 299 303 306 311 316 317 317 317 317 319 319 320 323 323 323 322 322 322 323 324 325 324 324 323 322 322 323 321 319 321 321 319 318 319 319 320 320 319 319 321 322 324 326 325 325 325 327 330 330 327 331 336 329 325 327 326 322 323 325 325 327 326 325 327 328 329 331 332 330 326 326 330 330 327 329 333 332 330
291 290 290 290 291 292 291 292 295 300 304 309 315 317 316 314 314 316 316 317 320 321 321 322 323 323 322 323 323 324 324 325 325 323 324 325 324 322 322 322 320 320 320 318 322 326 324 324 326 326 329 331 329 326 327 329 329 328 327 332 334 329 326 329 327 322 321 325 326 325 326 326 326 327 328 330 332 331 329 329 331 330 329 330 333 331 330
291 290 290 290 291 291 291 292 296 301 306 313 318 316 314 312 313 315 315 316 319 320 320 322 323 323 323 323 324 324 324 324 324 325 324 323 324 324 323 324 323 323 322 322 326 329 328 328 329 328 329 329 329 328 328 329 329 329 329 331 332 330 328 329 327 321 320 323 323 323 327 328 325 327 329 330 332 332 330 331 331 330 329 329 329 325 326
290 290 290 290 290 291 291 291 296 303 307 312 317 317 314 312 313 315 317 318 319 319 320 321 322 323 322 323 324 323 323 323 323 325 325 321 322 323 324 325 325 325 326 326 327 327 326 327 327 326 326 326 326 327 326 326 328 329 330 331 331 332 330 327 325 321 321 323 322 323 326 322 321 327 335 336 335 334 333 334 334 334 333 330 327 327 330
290 290 290 290 290 291 291 291 294 301 305 308 313 316 314 312 312 315 318 319 319 317 318 320 322 322 321 320 321 321 322 322 323 325 326 324 323 324 324 324 325 326 326 325 325 324 325 326 325 324 325 324 323 324 325 324 325 326 328 330 333 334 331 327 325 323 322 323 323 324 322 320 324 333 338 338 337 337 335 334 337 340 339 337 335 335 336
290 290 290 290 290 290 291 291 292 296 301 305 309 314 314 311 312 315 318 319 319 316 317 319 320 320 320 319 320 321 322 322 322 323 325 326 326 325 323 323 325 326 324 323 323 325 325 325 325 324 323 323 322 322 322 323 323 324 324 327 332 336 333 328 327 325 323 323 322 322 321 325 333 339 336 334 336 337 336 338 343 345 344 342 340 339 338
291 290 289 289 290 290 290 291 291 293 297 302 307 312 314 311 310 314 317 318 318 317 316 317 317 318 318 319 320 320 320 321 321 322 323 325 326 325 323 322 323 323 322 322 324 325 326 325 326 325 324 322 322 321 321 321 321 322 324 324 328 333 334 331 328 326 325 322 320 321 327 334 339 340 337 336 338 338 335 338 343 344 342 342 340 338 340
291 290 289 289 290 290 290 291 292 292 294 299 305 310 313 311 309 312 315 317 319 317 313 315 316 316 318 318 319 319 321 323 323 322 322 323 324 324 323 321 321 321 321 324 324 325 326 326 326 325 324 322 322 322 322 321 319 320 322 322 324 329 332 330 327 326 325 321 319 321 329 335 338 340 340 337 339 341 337 336 340 342 340 340 341 340 339
291 290 290 289 290 290 290 290 293 294 293 297 304 310 313 310 307 309 313 316 317 316 312 312 313 313 314 316 317 318 320 323 323 321 322 324 323 323 322 320 320 321 321 323 325 325 327 327 326 324 323 320 318 319 321 321 321 321 322 325 329 332 333 333 330 328 324 321 320 321 324 329 335 340 340 335 334 339 338 338 341 342 339 338 339 339 338
291 290 289 289 290 290 290 290 293 296 295 296 302 309 312 309 307 308 311 314 316 316 312 309 309 310 312 314 315 317 318 320 320 320 323 324 322 321 321 319 319 320 321 323 323 324 326 327 326 323 322 321 321 321 323 323 325 327 327 331 333 332 333 334 333 332 329 325 323 321 322 330 339 340 338 334 332 335 336 337 339 339 338 337 338 338 337
292 290 289 289 290 290 290 290 293 298 298 296 299 307 311 309 306 307 310 313 316 316 312 307 308 311 312 312 314 315 316 318 318 319 321 322 321 320 319 318 318 319 321 322 322 323 324 325 325 323 322 325 329 328 327 327 329 330 329 331 333 333 333 333 332 332 330 327 324 322 327 336 338 335 334 336 335 332 334 336 337 338 338 336 336 338 338
293 290 289 289 290 291 291 290 293 299 300 297 299 307 311 309 307 307 309 312 314 313 311 307 307 310 311 310 312 314 314 316 317 317 318 318 319 319 318 317 318 319 321 321 321 322 322 323 324 323 322 327 331 329 327 329 331 331 330 330 332 333 333 331 331 329 328 328 325 325 333 338 333 330 333 333 331 331 333 335 337 336 336 336 337 338 339
293 290 289 289 290 291 291 290 294 300 302 300 302 308 311 309 308 308 309 312 314 313 311 308 308 310 309 309 312 314 314 315 316 316 317 318 317 317 317 317 318 318 319 321 321 322 322 322 323 323 323 327 330 329 329 330 330 331 331 331 332 333 332 331 331 328 328 330 328 326 332 333 329 329 332 331 332 336 335 335 336 336 336 337 336 336 335
293 291 289 289 290 291 291 291 295 300 302 301 302 307 311 311 309 308 309 311 313 314 313 309 308 309 308 309 312 314 314 314 314 315 317 318 317 316 317 318 318 317 318 320 320 322 322 322 323 323 324 328 331 330 328 329 329 329 330 332 333 332 331 329 329 330 331 330 329 330 331 328 326 328 331 330 332 333 330 330 334 334 334 333 332 331 331
293 291 289 289 290 291 290 291 295 300 302 301 301 306 310 310 308 309 310 309 309 312 314 312 310 309 308 308 311 312 312 312 312 313 315 316 316 316 317 318 318 318 318 318 319 321 321 321 323 324 324 327 330 329 327 329 329 328 328 331 332 331 330 328 329 331 333 332 332 332 329 323 321 324 326 324 325 324 323 325 328 328 326 326 326 328 327
292 291 290 290 291 292 290 291 296 301 302 300 301 306 311 309 306 307 309 309 308 310 312 311 308 306 306 307 309 310 310 310 311 311 313 314 316 316 315 316 316 316 317 317 318 320 321 320 322 323 323 326 328 327 326 327 327 327 327 328 329 327 327 328 329 329 329 329 327 325 322 319 318 319 319 318 318 318 318 321 323 323 323 323 323 324 325
292 290 291 291 292 293 291 291 296 301 301 300 301 305 309 309 306 307 310 311 311 311 311 309 307 306 306 307 308 309 309 310 310 310 311 313 315 315 314 313 314 314 316 316 317 319 319 319 320 321 322 324 325 325 325 324 325 326 326 326 326 324 323 327 329 327 325 324 322 321 320 319 317 316 315 314 315 316 315 316 318 319 320 321 321 321 322
292 290 291 292 293 294 292 291 295 300 301 300 302 305 307 308 306 306 309 311 312 312 312 308 307 309 309 308 307 308 309 309 309 309 310 312 313 314 313 312 312 313 315 315 316 317 317 317 319 319 320 321 322 322 323 324 324 324 324 325 325 322 320 325 328 328 327 325 321 320 320 319 317 317 316 315 315 315 314 314 316 316 316 318 319 319 320
291 290 291 292 293 294 292 291 294 299 301 301 303 305 308 308 306 305 308 310 311 312 312 309 308 311 309 306 306 308 308 308 308 308 309 310 311 311 311 311 312 313 314 315 315 315 315 315 317 318 319 319 320 320 321 323 322 322 322 322 322 321 321 323 325 326 326 324 319 318 320 318 315 315 315 315 316 316 314 313 314 315 316 316 317 318 319
291 291 292 293 294 295 294 292 293 297 300 301 301 304 308 308 305 305 306 308 310 312 313 312 310 308 307 306 307 307 307 306 307 308 309 309 309 310 310 311 312 313 314 314 314 314 313 314 315 316 317 318 318 319 320 321 321 321 321 319 319 320 321 321 321 324 324 321 317 316 318 317 314 314 314 314 315 316 316 315 316 316 315 315 316 317 319
291 291 292 294 295 296 296 295 293 294 298 301 302 304 308 308 306 305 304 306 310 313 313 312 308 306 306 307 307 306 306 306 307 308 308 309 309 310 310 311 312 313 313 313 312 311 312 313 314 315 316 316 317 317 319 319 319 320 319 317 317 319 319 318 319 322 322 320 317 315 316 315 314 314 315 315 315 316 317 318 319 319 318 317 317 317 318
291 292 293 295 296 297 299 299 296 294 297 300 302 305 307 307 307 306 304 304 308 311 312 312 309 307 307 307 305 306 306 306 306 307 308 309 309 309 310 310 311 312 313 311 310 310 311 312 313 314 315 315 316 317 317 318 318 319 318 317 317 317 317 317 318 319 318 318 317 316 315 315 315 315 316 317 316 316 317 318 319 320 320 320 321 321 321
292 292 294 296 297 299 301 301 298 296 297 300 302 306 309 308 308 307 303 302 306 310 311 312 309 307 308 307 306 307 307 307 307 307 307 308 308 309 310 310 310 311 311 311 310 309 310 311 311 313 314 314 315 316 316 317 318 318 317 316 316 316 316 316 316 317 316 316 315 315 315 316 316 316 317 317 317 317 318 319 319 320 321 322 323 323 323
291 292 294 296 298 300 301 300 299 299 300 302 305 308 310 309 308 305 301 301 306 310 311 311 309 306 307 307 306 307 308 307 308 308 308 308 308 309 309 310 310 310 311 310 310 310 309 309 310 313 313 312 313 315 315 316 317 317 315 315 316 315 315 315 315 315 315 315 314 315 315 315 316 316 316 317 318 318 319 319 319 319 319 320 320 321 321
291 293 295 297 299 301 300 300 302 303 304 305 307 309 309 308 306 303 299 301 307 311 312 311 308 306 307 307 306 307 308 307 308 309 308 308 308 308 309 310 310 310 310 310 309 308 308 308 310 313 313 311 311 314 314 315 316 316 314 314 315 315 314 315 314 314 314 314 314 315 315 314 315 315 315 315 317 317 317 317 316 316 317 317 318 318 318
292 293 295 298 300 301 301 301 302 304 306 306 304 304 304 303 303 301 299 303 309 312 312 310 306 304 307 308 307 306 308 308 310 310 309 308 309 309 308 309 309 310 310 308 307 306 307 309 310 312 312 311 310 312 313 314 315 315 314 314 314 314 313 313 313 313 313 313 313 314 314 314 314 314 314 314 314 314 314 315 314 315 316 316 316 316 316
292 293 296 298 300 300 300 300 300 302 304 304 303 304 304 302 301 301 301 305 311 313 310 307 305 304 305 308 307 307 308 309 311 311 309 309 309 309 309 309 309 309 308 307 306 306 308 310 310 310 312 312 311 312 313 314 315 314 313 313 313 313 313 312 312 312 311 311 312 312 313 313 313 313 313 313 313 313 313 313 313 313 313 314 314 315 315
292 294 296 298 300 300 299 299 300 302 304 306 307 307 305 302 301 302 303 307 312 312 308 306 306 305 306 308 308 307 307 309 310 309 309 309 309 308 310 311 310 309 308 308 307 308 309 309 309 310 312 312 311 311 312 313 314 312 311 311 312 312 312 311 310 310 310 310 310 310 310 311 311 311 311 311 311 311 311 311 312 312 312 312 313 313 314
292 294 296 298 298 298 299 299 300 303 307 308 307 305 303 301 302 303 305 309 313 311 306 306 307 307 307 309 308 307 307 308 309 308 308 309 308 308 309 310 309 309 309 309 309 309 310 310 310 311 312 311 311 310 311 312 311 310 310 310 310 310 311 310 310 310 310 309 309 309 309 309 309 309 309 309 309 309 309 310 310 310 310 311 311 312 313
292 294 296 297 298 299 302 303 303 304 307 307 305 302 301 301 302 302 305 309 313 312 310 308 307 308 309 308 308 307 307 308 309 308 308 308 307 307 309 308 308 309 310 310 309 309 310 310 310 310 310 311 310 310 311 311 310 310 310 310 309 310 310 310 309 309 310 309 309 309 308 308 309 308 308 308 308 308 308 309 309 309 310 310 310 311 312
293 294 297 299 301 303 304 305 304 304 304 302 301 302 302 303 305 306 308 311 312 312 312 309 307 307 308 308 307 306 306 307 309 308 308 307 306 307 307 306 306 308 309 308 309 310 310 310 310 309 311 311 311 311 311 310 310 310 310 309 309 309 309 309 309 309 309 309 309 309 308 308 308 307 307 307 307 307 308 308 308 308 308 309 309 310 310
293 295 299 303 305 304 304 304 303 301 300 300 302 304 306 306 306 306 306 307 307 308 309 308 306 307 308 308 307 306 306 307 309 308 307 306 305 306 307 306 306 306 306 307 309 310 310 310 309 309 310 312 312 311 311 310 310 310 309 309 309 309 308 309 308 308 308 309 309 308 308 307 307 307 306 307 307 306 307 307 308 308 308 308 308 309 309
295 298 302 305 305 304 303 302 299 299 301 303 305 305 304 303 303 303 303 303 304 305 306 306 305 305 306 307 308 306 306 307 308 308 307 306 306 307 307 306 306 306 305 306 308 309 309 309 308 308 310 312 312 311 310 310 309 309 309 309 309 308 308 308 308 308 308 308 308 308 307 307 307 306 306 306 306 306 306 307 307 307 307 307 307 308 308
300 303 305 304 304 303 301 299 299 301 304 305 304 303 302 302 302 302 303 303 303 303 304 306 306 305 305 305 307 307 305 306 307 308 307 307 306 306 305 305 306 306 305 305 307 308 307 307 307 307 308 310 311 310 310 309 309 309 308 308 309 309 308 308 308 308 308 308 307 308 308 307 307 306 306 306 306 305 306 306 306 306 306 306 307 307 307
305 307 305 304 303 302 302 301 303 304 304 302 301 301 301 301 302 302 303 303 303 303 304 305 305 305 304 303 304 306 305 305 305 305 306 306 306 305 304 305 306 305 304 305 307 307 307 306 306 307 309 310 310 310 309 309 308 308 308 308 308 308 308 308 308 308 308 307 307 307 307 307 307 306 306 306 306 306 306 306 306 306 305 306 306 306 306
301 303 304 304 303 302 303 303 303 302 300 300 300 301 300 301 302 302 302 302 303 304 304 303 303 304 303 303 304 305 305 304 304 304 305 305 304 303 303 304 305 304 305 305 306 306 306 306 305 307 309 310 310 309 309 309 308 308 308 308 308 308 308 308 308 307 307 307 307 307 307 306 306 306 306 306 306 306 306 306 305 305 305 305 305 306 306
298 302 304 304 302 302 302 301 300 300 300 300 300 301 301 300 301 302 301 302 303 304 303 303 303 304 304 304 304 304 304 304 304 303 304 303 303 303 303 303 303 304 305 305 305 305 305 305 306 308 310 310 309 308 309 308 308 308 308 308 308 308 308 308 307 307 307 307 306 306 306 306 306 306 305 305 305 305 305 305 305 305 305 305 305 305 306
301 303 303 302 299 299 299 298 299 301 300 300 301 302 302 301 302 303 303 302 303 303 302 302 303 303 303 304 303 303 303 304 304 302 302 302 302 302 302 302 303 304 304 304 305 305 305 305 306 308 309 308 307 308 308 308 307 307 307 307 307 307 307 307 307 307 306 306 306 306 305 305 305 305 305 305 305 305 305 305 304 304 304 304 305 305 305
302 300 299 297 297 298 298 298 298 300 300 300 301 302 302 302 304 304 302 301 301 302 303 302 302 302 302 303 303 303 303 303 302 301 301 302 303 303 302 302 303 304 304 303 304 304 304 304 306 308 308 307 307 307 306 306 306 306 306 306 307 307 306 306 306 306 306 306 306 305 305 305 305 305 305 304 304 304 304 304 304 304 304 304 304 304 304
300 298 298 297 297 298 299 298 298 299 300 300 301 302 302 302 302 302 301 300 301 302 301 301 301 301 301 302 302 302 302 302 301 301 302 302 302 302 302 302 302 302 302 303 303 303 303 304 306 307 307 307 306 306 305 305 305 305 305 305 305 305 306 306 306 306 305 305 305 305 304 304 304 304 304 304 304 304 304 304 304 303 304 304 304 304 304
298 297 298 298 297 298 299 299 300 300 301 301 301 301 300 300 301 301 301 300 300 301 301 301 301 301 301 302 302 301 302 302 301 302 302 302 301 301 301 301 301 301 302 302 302 302 302 304 306 307 306 306 305 305 304 304 304 304 305 305 304 304 305 305 305 305 304 304 304 304 304 304 304 304 304 304 304 304 303 303 304 304 304 304 304 304 303
298 298 298 298 298 299 300 300 300 301 301 301 300 300 300 300 301 302 302 301 300 301 301 301 301 300 300 301 301 301 301 301 301 301 301 300 300 301 301 301 301 302 302 302 303 303 303 305 306 306 305 305 304 304 304 304 304 304 304 304 304 304 304 304 304 304 304 303 303 304 303 303 303 303 303 303 303 303 303 303 303 304 304 304 304 303 303
299 299 299 299 299 300 300 301 302 302 302 301 301 301 301 301 301 302 302 301 301 301 301 300 300 299 299 299 300 300 300 300 300 300 300 300 300 301 301 302 302 302 302 303 303 304 304 305 305 305 305 304 304 303 303 303 303 303 303 303 303 303 303 303 303 303 303 303 303 303 303 303 303 303 303 303 303 303 303 303 303 303 303 304 303 303 304
300 300 300 300 301 301 301 301 302 302 302 302 302 302 301 301 301 302 302 301 301 300 300 300 300 300 300 299 299 299 300 300 300 300 300 301 301 301 302 302 302 302 303 303 304 304 304 304 304 304 304 303 303 303 303 302 302 303 303 302 302 302 302 302 302 302 302 302 302 302 302 302 302 302 303 303 303 303 303 303 303 303 303 304 304 304 304
300 300 300 301 301 301 301 301 301 301 301 301 301 301 301 301 301 301 301 301 300 300 299 299 300 300 300 300 300 299 300 300 299 300 301 301 301 301 302 302 302 302 302 303 304 304 303 303 303 303 303 303 303 302 302 302 302 302 302 302 302 302 302 302 302 302 302 302 302 302 302 302 302 302 302 302 302 302 303 303 303 303 304 304 304 304 304
300 300 300 301 301 301 300 301 301 301 300 300 300 300 300 300 301 301 301 300 300 300 299 299 299 299 299 299 299 299 299 299 300 300 300 301 301 301 302 302 302 302 302 303 303 303 303 303 303 303 302 302 302 302 302 302 302 302 302 302 302 302 302 302 302 302 302 302 302 302 302 302 302 302 302 302 302 303 303 303 303 303 303 303 303 304 304
Wind_Speed
18 19 20 21 23 23 24 24 24 28 31 26 21 17 8 5 7 2 8 8 6 5 5 6 6 7 9 11 13 12 10 11 11 13 15 11 9 8 10 10 10 8 4 2 3 4 5 8 6 6 10 9 5 3 7 16 14 7 4 2 4 6 4 6 6 6 7 8 12 12 8 8 8 5 2 1 1 1 2 2 1 2 3 2 3 1 2
18 19 20 21 22 22 23 24 23 24 27 23 17 12 5 5 9 6 6 6 5 6 5 6 6 7 11 12 13 13 12 11 10 11 14 10 6 8 10 10 9 8 8 5 3 3 3 7 8 8 11 9 6 8 10 11 9 3 1 2 3 3 4 5 5 6 6 5 7 7 4 5 6 5 4 3 5 5 4 2 1 1 2 4 3 1 1
17 18 20 21 21 22 23 23 21 21 24 22 12 7 6 6 6 5 5 6 5 6 6 6 6 7 9 10 12 13 10 8 8 11 14 11 8 9 9 10 10 9 10 9 7 5 5 6 7 9 9 6 7 12 12 8 5 2 4 2 1 2 4 5 5 6 6 4 3 3 2 4 5 7 7 6 5 2 1 1 2 2 3 4 2 1 3
17 17 19 21 21 22 23 22 21 19 22 23 14 7 7 5 4 4 2 4 4 6 7 8 7 6 7 9 11 12 9 8 8 11 14 13 11 11 11 11 10 10 11 11 9 9 9 8 7 9 10 6 7 10 10 10 7 4 7 5 2 3 5 6 7 8 6 3 1 1 2 3 5 9 9 6 6 5 3 4 2 1 4 2 5 4 3
16 17 19 20 21 22 23 21 20 18 19 22 14 7 5 4 5 6 3 2 4 5 6 8 7 6 5 5 8 9 9 10 9 10 10 11 11 11 10 11 9 9 11 9 7 8 9 9 9 10 11 10 7 7 6 10 3 5 3 2 2 4 6 7 11 12 11 10 6 6 3 5 6 9 9 4 5 5 3 4 2 2 1 1 3 3 1
15 16 18 20 21 22 23 22 21 18 19 19 11 4 4 4 6 5 3 2 5 4 5 7 8 8 7 5 7 9 10 11 8 5 7 10 11 8 7 10 12 11 9 7 5 7 9 8 10 10 9 11 10 5 6 4 4 1 5 4 2 5 6 7 11 13 15 17 11 8 8 8 8 9 9 6 7 6 4 5 5 4 3 1 4 3 4
14 16 17 19 20 21 22 22 21 19 19 15 7 5 5 5 5 5 5 5 6 6 8 9 10 10 7 5 7 8 9 9 8 5 4 8 10 9 6 10 14 14 12 10 7 8 8 7 9 9 7 7 9 6 6 1 7 5 3 4 4 4 3 5 10 12 14 16 14 11 11 10 10 10 9 5 7 6 5 6 6 6 5 1 3 4 7
13 15 17 18 19 20 21 21 20 20 19 13 7 7 4 5 5 6 7 7 7 7 8 8 8 7 6 5 5 6 8 7 6 6 6 7 8 8 8 11 13 13 15 13 5 3 5 5 7 7 8 7 7 6 3 3 7 7 4 5 5 3 3 5 7 8 11 15 16 15 13 11 11 11 10 6 6 5 4 5 5 6 7 3 3 7 6
13 14 16 17 18 19 20 20 20 19 17 13 7 3 6 8 8 6 6 6 7 7 7 6 6 5 4 3 3 5 7 6 5 5 7 8 7 6 8 9 9 12 14 9 6 10 10 9 9 9 8 7 7 6 5 4 2 3 5 4 4 3 4 5 4 5 8 14 17 15 10 11 11 6 6 7 6 4 4 5 5 5 5 2 3 5 4
13 14 15 16 17 18 18 18 18 18 16 12 8 6 9 10 9 7 6 6 6 7 6 5 5 3 3 3 4 5 6 5 6 5 6 7 4 4 8 9 8 8 9 6 9 10 10 10 10 10 8 9 9 7 8 9 6 2 2 3 3 2 1 2 3 4 6 12 17 14 9 8 6 3 3 4 7 6 3 5 6 4 2 1 2 4 4
13 13 14 15 16 17 17 16 16 16 16 13 8 8 10 9 7 6 5 6 6 6 6 5 3 2 3 5 6 6 6 5 5 5 4 4 3 4 7 9 8 5 5 8 9 10 11 11 10 10 10 12 13 11 11 12 11 7 4 3 2 2 2 2 2 2 6 11 13 10 8 7 3 1 4 8 6 6 5 4 4 4 5 6 5 5 5
12 13 14 14 15 16 16 16 14 13 13 13 10 9 10 11 8 6 4 6 7 6 5 4 3 3 4 5 5 6 6 5 3 4 5 5 5 6 6 6 7 5 6 9 10 10 10 11 12 12 13 14 14 14 15 14 13 11 9 8 5 5 4 3 3 1 5 9 9 8 6 3 2 1 3 7 8 3 3 0 6 9 10 10 9 7 7
12 13 13 14 14 15 15 15 14 12 10 11 11 10 10 12 8 5 4 6 6 6 6 5 4 5 4 5 6 7 7 6 4 2 4 6 6 6 5 4 6 6 8 10 10 9 9 9 9 11 12 13 14 15 17 17 16 14 12 11 8 6 5 3 2 3 5 5 5 6 2 3 4 5 6 6 6 4 1 3 8 11 10 10 8 8 10
11 13 13 13 14 14 15 15 15 13 10 8 10 11 10 10 8 5 4 5 6 8 8 4 4 6 6 6 8 8 7 7 5 2 4 5 5 6 6 5 6 7 7 8 8 6 6 5 6 7 8 8 9 10 13 16 17 17 17 15 12 9 7 4 3 5 5 5 6 4 2 2 1 4 8 6 4 4 2 4 6 8 9 7 7 9 10
11 12 13 13 13 13 14 15 15 14 10 6 9 12 8 8 9 7 5 5 6 7 7 4 7 8 8 7 8 6 5 6 4 3 6 6 4 5 7 4 7 8 7 7 6 5 4 4 4 5 5 6 7 7 8 9 11 13 13 8 1 3 2 1 1 2 4 5 6 4 2 1 2 5 9 11 7 6 5 4 4 5 9 8 6 7 10
11 12 12 12 13 13 14 15 14 14 11 7 8 10 7 8 10 9 6 5 5 5 5 7 8 9 7 7 7 5 3 4 4 4 5 5 4 5 7 5 8 9 8 6 5 4 4 4 4 5 6 6 5 4 4 4 3 3 5 8 13 12 7 4 3 0 3 5 6 5 4 1 6 9 10 13 10 5 5 3 0 3 9 11 7 5 5
12 12 11 12 13 12 13 14 13 13 12 8 9 10 8 9 11 9 7 5 5 5 5 8 8 7 5 5 6 5 3 4 5 4 4 5 5 5 5 6 9 9 6 5 4 4 5 5 5 6 6 3 3 4 4 5 4 5 7 7 11 10 4 1 1 3 2 4 5 4 1 3 7 11 10 11 12 6 3 1 2 5 8 8 6 2 3
12 12 11 11 12 12 12 12 12 12 11 8 9 9 7 7 10 9 7 5 5 5 5 8 7 5 5 6 7 5 4 4 4 5 5 5 3 4 5 6 7 6 4 3 4 4 5 5 5 6 5 1 3 4 3 4 3 5 7 6 5 5 3 1 3 4 3 3 3 2 2 3 8 13 11 12 11 5 1 0 2 5 8 9 7 3 5
12 12 11 11 12 12 12 11 10 10 10 9 9 9 6 5 9 9 7 4 5 5 4 7 6 5 7 7 6 5 5 5 4 4 5 4 3 7 8 5 3 4 3 3 3 4 5 5 5 5 4 1 3 3 3 3 3 5 6 4 3 3 1 1 3 3 2 1 3 2 2 4 11 12 11 12 6 1 2 3 4 2 5 8 7 9 11
12 12 11 11 11 11 11 10 8 7 8 9 11 10 7 4 6 8 6 4 5 5 3 6 7 7 7 7 6 6 6 5 5 5 5 5 7 8 7 2 1 3 3 3 4 4 4 5 4 4 3 1 1 2 2 2 5 6 5 2 1 1 2 2 3 4 2 1 2 3 1 6 14 11 9 10 6 3 6 5 2 1 3 6 7 11 13
12 11 11 11 11 10 10 9 7 5 6 8 10 10 8 4 6 7 6 5 5 4 3 7 9 8 7 7 6 7 7 7 6 6 5 6 7 7 4 2 3 4 3 4 5 4 2 3 3 3 3 1 1 2 2 2 3 3 3 1 2 0 2 1 1 3 3 2 0 1 2 7 13 10 7 8 8 7 9 8 5 6 8 8 9 11 12
11 11 11 11 11 10 9 8 6 4 5 7 9 10 8 5 8 9 7 6 6 7 7 9 8 6 6 5 4 5 6 7 6 6 6 6 6 5 5 5 5 5 4 4 4 4 3 3 3 3 3 1 1 2 2 1 0 1 2 2 1 1 2 3 1 1 2 2 3 4 5 8 11 10 9 10 11 11 11 11 9 9 10 9 8 10 12
11 11 10 10 10 10 9 8 5 3 3 5 7 9 9 8 10 12 10 7 7 9 10 9 6 6 6 3 1 3 3 4 5 7 7 6 5 4 6 7 6 5 4 4 4 4 5 5 4 3 3 3 3 4 3 2 0 2 3 3 3 3 3 3 1 4 5 4 5 5 7 9 10 10 11 11 12 11 12 11 10 10 10 10 9 9 11
10 10 10 10 10 10 9 7 4 2 3 4 4 8 10 8 10 13 10 6 5 5 6 5 4 2 1 2 1 3 1 1 3 5 5 6 6 4 5 6 6 5 5 6 5 4 4 4 4 3 3 3 4 4 3 2 2 2 2 1 4 5 5 3 2 4 3 2 5 4 4 6 7 7 8 10 10 10 10 9 8 9 10 10 11 11 10
10 10 10 9 10 9 8 6 4 3 2 3 4 7 9 7 8 11 9 5 4 4 3 3 2 1 2 1 2 2 1 2 3 3 3 5 5 4 5 6 6 5 5 6 6 4 4 4 4 4 3 3 4 4 2 2 2 3 4 3 3 4 6 4 3 2 1 3 4 2 2 3 5 4 4 5 6 8 9 8 8 9 10 10 11 12 11
10 10 9 8 9 9 7 6 4 4 4 3 5 9 9 6 7 9 9 7 5 4 5 3 3 3 3 4 2 1 2 3 4 3 4 4 3 3 4 5 6 6 6 5 4 4 3 3 4 4 3 3 4 5 2 2 2 3 6 5 3 3 4 5 4 2 5 5 3 2 2 3 4 4 1 2 4 5 7 8 8 9 10 11 12 11 11
10 9 8 8 8 7 6 6 5 4 5 3 4 7 7 5 6 7 8 8 5 3 4 2 3 3 3 2 1 2 4 3 3 4 4 4 3 2 4 5 6 6 5 3 3 4 4 3 2 3 3 2 2 3 1 2 2 4 6 5 4 3 4 6 5 2 4 3 3 4 1 1 4 4 2 3 4 5 6 7 6 6 7 9 10 11 12
9 8 7 7 7 7 6 6 5 3 4 4 4 8 9 5 3 5 8 8 5 3 4 4 2 2 2 1 1 4 4 2 3 5 5 5 4 3 3 4 5 5 5 4 4 4 4 4 3 3 3 3 2 2 1 1 3 5 5 6 6 5 4 5 4 4 4 4 3 4 2 2 2 2 2 3 3 4 6 7 7 6 6 6 6 8 10
8 7 6 6 6 6 6 5 4 2 4 5 7 11 10 4 1 5 8 8 5 5 6 6 3 1 1 2 2 2 0 1 3 4 4 5 5 4 4 3 3 4 3 3 4 4 3 4 4 3 3 2 2 2 2 1 3 5 4 5 7 5 4 6 6 4 4 5 4 2 0 3 3 1 1 2 3 4 5 7 8 8 8 8 7 7 7
7 6 6 5 5 4 5 4 2 1 2 5 8 9 6 5 3 7 10 8 5 5 5 5 3 1 2 2 2 4 2 1 0 2 3 4 4 4 5 4 3 3 3 2 3 3 2 2 2 1 3 1 3 2 1 1 3 4 5 5 7 7 7 7 6 4 4 6 5 3 3 5 5 3 4 1 3 5 6 7 7 5 5 5 5 5 5
7 6 5 4 3 3 3 2 2 3 5 7 7 6 2 2 2 9 10 5 4 5 5 5 2 0 2 2 1 3 4 3 1 1 1 1 3 4 4 3 2 2 2 2 2 3 3 3 2 1 3 2 1 2 1 1 3 4 5 6 6 6 6 6 5 5 5 7 7 8 8 8 7 5 5 3 2 3 4 5 8 9 7 5 6 7 8
6 5 4 3 2 1 2 2 1 3 6 6 4 3 3 4 8 11 8 4 4 6 6 4 2 1 1 2 2 1 5 4 3 3 1 1 1 2 1 2 3 1 2 2 3 3 3 3 4 3 2 3 1 3 2 1 3 4 4 5 5 4 4 6 5 5 6 6 7 6 6 5 5 5 5 5 6 7 7 7 9 11 9 7 8 9 10
5 4 4 2 1 1 1 1 2 2 4 4 3 2 4 7 8 7 5 4 6 7 5 3 2 0 1 1 2 2 5 5 3 2 1 2 2 1 1 1 2 1 1 1 2 2 1 2 4 2 2 1 2 2 2 3 3 4 4 5 5 3 2 4 4 2 4 6 6 6 6 5 5 4 5 6 8 8 9 9 9 10 9 8 8 8 10
4 4 4 3 2 2 1 2 3 6 6 5 1 1 3 6 7 6 5 5 6 6 4 3 3 1 0 2 2 4 7 6 2 0 1 3 3 3 2 1 1 1 1 1 2 2 1 2 4 3 1 1 3 0 3 3 5 5 5 6 5 2 2 3 3 2 3 5 6 6 7 7 7 7 7 8 8 9 10 11 10 10 9 8 8 9 9
3 4 3 3 2 1 1 1 6 8 6 1 2 1 3 5 6 5 4 4 4 3 1 1 3 2 1 1 3 5 7 6 2 2 2 2 1 3 3 2 0 1 1 0 3 4 2 1 3 3 1 1 2 2 2 4 4 4 5 5 4 3 4 5 6 7 5 4 4 6 7 8 8 8 8 8 9 10 10 10 10 10 9 8 9 9 9
3 4 4 3 2 3 4 3 4 6 4 2 1 3 5 6 7 7 6 5 5 3 2 2 1 3 3 2 3 4 6 5 2 1 0 1 1 1 2 3 3 1 1 0 3 4 2 1 2 3 2 2 1 1 2 4 4 5 5 4 3 3 4 5 7 9 9 6 5 7 8 9 9 8 8 8 9 10 10 10 10 10 10 10 10 9 8
5 6 5 4 3 5 4 1 1 3 3 2 3 7 7 7 7 6 5 5 6 4 4 4 3 4 4 2 3 3 5 4 3 2 1 3 3 2 1 3 3 2 1 3 4 3 0 2 1 5 2 2 3 3 6 6 5 5 4 2 2 2 2 4 6 7 9 8 6 6 7 8 9 8 9 9 9 10 10 10 9 10 10 10 10 9 10
7 7 5 5 5 2 0 2 3 2 1 1 4 6 5 3 3 2 1 1 2 2 3 3 3 4 5 2 3 3 5 4 5 3 2 2 3 2 0 2 2 1 2 4 2 1 1 1 3 4 0 4 4 5 6 5 4 4 3 1 2 3 4 4 3 4 6 7 6 6 6 7 7 8 9 10 10 10 10 9 9 10 10 10 10 11 12
7 5 6 6 3 1 3 2 2 2 1 3 4 4 2 1 1 1 0 1 1 1 2 2 3 4 6 4 4 4 4 5 6 5 2 2 1 2 2 2 1 1 3 4 0 1 2 4 4 3 2 4 4 4 4 4 3 4 4 3 3 3 4 5 5 6 5 5 6 8 8 8 8 9 9 9 9 9 9 9 10 11 12 12 12 12 12
6 5 3 0 2 4 4 3 3 2 3 4 2 1 2 2 2 1 1 1 2 2 3 2 1 2 4 5 4 4 5 5 6 6 5 3 1 2 3 3 2 1 4 4 1 1 3 4 3 4 3 3 6 4 2 2 4 5 3 1 1 2 4 5 6 6 6 6 7 8 9 10 10 9 9 10 10 10 9 9 11 13 14 14 13 13 13
4 3 1 4 4 4 3 2 2 2 3 2 1 1 2 2 1 1 1 1 2 2 2 3 2 2 4 5 5 3 5 5 4 4 4 3 2 1 4 4 2 2 4 3 1 1 3 4 3 3 1 4 6 4 3 3 6 4 0 1 2 3 5 6 7 8 8 8 8 9 11 12 12 11 12 12 11 11 11 11 12 14 16 15 14 14 15
3 3 3 2 1 2 2 2 2 1 1 2 1 2 1 1 1 1 1 2 2 1 2 3 4 3 4 4 4 2 3 5 3 3 3 2 2 1 4 3 2 3 4 2 1 2 2 3 4 2 3 6 5 2 2 3 4 2 0 1 1 3 5 6 7 8 9 10 10 10 12 12 12 13 14 15 14 14 14 14 14 16 17 16 16 16 17
7 4 2 1 1 1 1 0 0 1 1 1 1 1 1 0 0 1 1 1 1 1 2 2 2 2 1 2 2 1 2 2 2 2 3 2 1 2 3 2 3 4 3 3 3 3 3 4 4 0 5 5 4 3 3 3 1 1 1 1 3 5 6 7 8 9 10 11 12 12 12 13 13 14 15 16 16 16 16 16 16 16 17 17 17 17 17
2 0 1 0 0 1 1 0 0 1 1 1 1 0 1 1 1 2 2 2 2 2 3 3 4 3 2 1 2 1 1 0 0 1 3 2 2 2 2 2 3 3 3 4 4 3 3 4 2 3 5 4 3 3 3 2 0 1 2 3 5 7 8 8 9 10 10 11 12 13 13 14 15 15 16 17 17 17 17 18 17 17 17 18 18 17 17
2 2 1 2 1 1 1 1 0 1 1 1 2 1 3 3 3 3 3 3 3 3 2 3 4 4 3 2 2 1 0 1 1 2 2 2 2 2 3 3 3 3 4 4 4 3 5 5 1 4 5 5 4 3 1 1 1 3 4 5 6 7 8 8 8 9 10 12 13 14 14 15 15 15 16 18 19 19 19 19 18 18 18 18 17 17 18
1 1 1 1 1 2 1 1 1 0 1 1 2 3 4 4 4 5 4 3 3 3 4 4 4 4 4 3 2 1 1 1 2 2 2 2 3 2 2 3 3 3 3 4 4 4 6 4 2 4 4 3 3 1 1 2 3 5 5 6 6 7 8 9 10 10 12 13 15 15 15 16 16 17 17 19 20 20 20 20 20 20 19 18 18 19 19
0 1 1 2 2 1 1 2 2 1 2 2 3 4 4 3 2 3 3 3 3 4 4 3 3 3 3 2 2 3 2 2 2 3 2 2 3 2 2 3 3 3 4 4 4 5 5 1 5 6 4 1 1 2 3 4 5 6 7 7 8 8 10 11 11 13 15 16 16 16 16 17 17 18 18 19 19 20 20 20 21 21 20 19 19 20 21
0 0 1 1 1 0 1 2 2 2 3 3 3 3 2 2 0 3 3 2 3 3 3 3 3 3 3 2 2 3 3 2 2 3 2 2 3 2 2 3 3 3 4 4 5 6 5 1 4 5 3 2 3 4 5 5 6 7 8 9 9 10 11 11 12 14 16 17 16 16 16 17 17 18 18 18 19 20 20 20 20 20 20 20 21 21 21
1 0 1 1 1 1 2 0 2 2 3 2 1 0 1 1 2 3 4 2 3 3 3 3 3 3 3 2 2 4 4 3 2 3 3 3 3 2 2 3 4 4 4 5 5 6 4 2 3 3 3 4 5 6 6 6 6 7 8 9 10 12 13 14 14 15 16 16 15 16 17 17 17 18 18 18 18 19 20 21 20 20 20 21 21 21 21
1 0 1 0 0 1 1 1 2 1 2 2 1 1 2 2 3 4 4 3 4 4 4 3 2 2 3 3 3 3 3 3 3 4 4 4 4 4 4 5 5 5 5 5 6 5 3 2 2 3 5 6 6 6 6 6 7 7 9 11 13 14 15 15 16 16 16 16 16 17 17 17 17 18 18 18 19 20 21 21 21 21 21 22 21 21 20
0 1 1 2 2 2 2 2 2 3 3 3 3 3 3 3 3 5 5 4 4 4 4 3 2 2 3 3 3 3 3 3 3 5 5 4 4 4 5 6 6 5 6 6 6 4 3 2 3 4 6 6 6 6 6 7 8 10 12 14 15 15 15 16 16 16 17 17 18 18 18 18 18 19 19 20 20 20 19 19 20 21 21 20 20 20 20
1 1 1 2 3 3 3 2 2 3 3 3 3 3 3 3 3 3 3 2 3 3 3 4 3 3 4 4 3 3 3 3 4 5 5 4 4 5 6 6 6 7 7 7 6 5 5 4 4 4 5 5 6 7 8 9 10 12 13 15 15 16 16 16 16 17 17 17 18 18 19 19 19 19 19 20 19 16 14 15 18 19 20 20 20 20 21
Wind_Direction
333 331 327 326 330 335 338 343 349 351 351 352 345 333 309 277 309 288 161 172 217 233 244 241 227 231 239 244 247 244 242 249 256 265 261 235 213 242 265 260 256 269 272 146 174 214 240 240 237 276 269 245 240 239 268 286 283 262 259 299 353 327 263 235 263 265 244 241 252 262 277 285 276 267 251 253 25 77 155 150 25 307 271 286 303 171 134
332 329 326 328 333 337 340 345 349 353 358 358 340 326 317 299 303 282 180 170 219 241 242 245 241 238 239 241 246 246 242 241 245 257 264 257 225 228 248 252 245 247 249 242 217 186 221 247 238 245 252 242 226 222 233 264 282 290 333 30 24 332 276 250 257 263 255 245 252 258 299 334 310 290 301 1 33 34 39 61 130 244 336 1 334 294 138
330 328 328 331 336 340 341 344 349 351 355 357 344 306 302 301 288 265 193 175 219 245 255 272 283 278 269 262 257 249 244 253 260 261 266 267 256 245 243 245 247 251 253 252 245 219 210 244 257 259 252 221 200 221 228 239 265 331 38 39 285 272 286 282 261 258 265 270 278 283 344 358 324 311 329 347 334 322 56 304 223 209 0 28 70 275 287
329 328 330 335 339 341 341 343 347 347 351 354 343 294 296 310 295 289 217 188 236 251 261 273 276 280 290 291 275 256 249 254 242 247 267 272 261 250 241 238 241 246 251 254 249 237 226 228 248 263 262 240 189 201 225 235 219 117 68 46 336 282 280 279 273 271 273 280 299 75 344 313 287 301 324 349 313 280 258 284 277 56 344 359 134 156 279
330 330 333 338 340 341 342 343 344 343 347 350 340 286 271 291 306 326 350 295 275 259 261 268 268 268 266 284 292 278 270 267 236 217 240 261 263 257 246 241 241 241 246 251 259 260 250 238 240 247 256 263 240 202 245 276 257 116 118 241 241 269 267 261 271 276 273 271 240 161 184 248 243 268 281 279 281 276 265 273 240 140 304 315 108 105 327
332 332 336 340 342 343 343 343 343 341 339 343 340 282 267 293 308 338 20 307 287 296 303 296 290 285 268 269 292 289 281 282 272 228 228 252 263 267 263 258 254 251 251 253 259 264 268 268 262 253 247 260 267 230 214 277 13 60 256 265 265 268 261 254 266 270 269 272 258 191 195 225 226 240 255 275 294 284 264 253 223 216 267 57 69 354 305
333 335 338 342 344 344 344 345 345 339 332 331 309 260 290 312 314 341 358 312 287 293 303 298 288 284 280 275 279 281 280 285 295 299 280 277 272 263 255 252 250 252 252 247 235 233 247 262 264 273 290 294 294 266 208 162 16 341 311 43 23 302 279 277 280 277 275 282 282 258 237 225 217 223 227 260 293 283 270 266 247 251 269 170 145 254 275
335 337 340 344 346 346 346 347 347 344 338 326 271 243 303 332 321 333 332 313 298 288 286 285 283 280 275 264 268 281 282 286 304 299 281 291 293 284 269 255 258 270 263 253 260 311 305 293 275 295 333 332 309 295 275 24 9 331 337 46 38 347 332 321 311 299 295 300 297 286 275 263 246 223 203 216 274 273 252 263 261 251 253 246 227 245 262
336 339 342 346 347 347 349 350 349 352 350 335 296 289 360 335 312 312 307 303 309 299 287 283 284 285 279 272 294 300 286 296 323 298 266 272 290 312 308 289 292 297 278 274 356 6 345 331 318 318 330 320 304 312 321 331 352 334 331 352 9 351 321 326 323 297 297 294 286 285 298 305 296 265 202 196 220 243 254 247 240 244 249 269 281 264 271
340 341 343 346 348 349 351 351 352 356 2 353 328 346 5 341 319 320 303 289 297 294 285 278 272 287 319 307 302 298 292 314 334 307 263 260 274 326 325 314 308 293 285 320 1 347 325 319 316 313 310 298 292 293 293 287 281 268 258 285 323 332 321 330 295 281 287 280 280 291 312 317 318 330 332 285 236 226 245 250 240 249 281 287 276 289 309
343 342 343 346 349 350 350 352 355 357 5 4 334 323 352 351 328 322 304 287 295 292 281 280 284 332 331 301 292 298 300 313 341 342 302 279 301 328 321 318 312 301 324 345 335 317 310 304 295 290 284 280 279 278 275 272 269 260 238 229 220 175 194 248 252 277 284 277 285 298 297 289 273 151 9 351 309 246 233 270 305 8 18 3 350 342 324
344 342 342 345 349 351 351 352 355 356 358 353 323 308 345 353 324 304 306 297 298 298 291 300 319 313 303 301 298 295 291 291 332 354 325 305 312 315 312 312 309 319 340 331 317 313 306 288 274 268 265 263 261 260 262 260 257 256 246 234 209 169 183 232 207 201 271 276 284 280 271 295 351 80 54 34 15 337 219 194 27 29 21 5 354 348 337
343 341 341 344 347 352 353 351 353 356 351 345 330 314 337 352 332 306 318 303 296 313 315 311 312 301 307 323 307 292 292 291 289 307 300 298 299 293 295 313 316 328 335 321 313 310 299 286 278 271 263 259 252 247 247 246 246 246 240 237 230 198 192 211 196 215 245 252 255 254 278 17 0 6 28 45 42 28 116 94 43 25 19 11 352 350 357
340 339 339 343 347 352 354 352 354 355 348 342 331 314 324 355 351 328 327 313 305 319 313 307 338 332 325 323 311 311 316 298 277 277 289 281 280 282 287 312 326 328 325 314 304 292 282 284 287 279 267 259 252 244 242 240 239 237 236 237 236 218 202 202 207 218 228 242 248 230 106 71 292 9 12 11 56 65 86 93 55 25 17 21 11 356 352
336 337 338 343 346 351 354 354 354 354 350 340 323 314 328 7 354 323 315 311 304 312 317 352 8 342 321 312 307 310 317 300 304 341 303 270 256 277 280 306 339 329 314 302 289 280 290 289 279 278 269 256 252 245 242 238 229 233 243 247 279 44 59 93 178 239 247 255 256 245 202 179 82 32 351 345 23 74 95 103 83 28 1 8 39 18 346
331 333 336 341 344 348 353 354 356 356 354 345 327 323 340 7 349 322 308 304 292 303 346 15 358 325 303 305 307 304 309 307 316 338 316 288 271 277 283 321 337 316 298 294 279 261 275 275 265 267 259 259 273 281 293 293 274 305 353 56 71 58 35 41 80 55 295 273 260 264 256 336 31 8 332 330 345 33 78 76 115 29 360 350 6 20 349
330 329 333 338 340 345 349 352 356 358 358 353 337 327 336 359 353 329 305 302 286 290 355 15 348 318 311 329 328 329 337 319 310 323 323 297 282 284 298 323 319 295 273 283 285 265 259 254 254 263 260 280 324 318 338 342 326 339 1 47 82 84 68 14 172 187 222 246 256 278 202 84 6 339 324 326 324 329 73 82 304 17 4 321 293 255 141
331 326 330 333 337 342 345 349 354 358 1 356 331 312 311 349 358 334 304 301 287 288 15 25 353 332 348 340 329 332 330 311 310 322 306 280 285 323 317 313 316 304 277 276 285 280 274 261 252 261 264 358 3 315 337 356 316 317 343 5 46 72 102 241 264 235 216 221 253 282 110 78 340 326 334 336 313 285 122 213 296 353 335 293 282 340 72
330 325 328 331 333 338 341 344 352 358 1 355 335 316 302 339 2 344 316 301 287 293 22 28 353 349 359 336 322 338 330 309 316 332 309 295 0 341 306 279 278 290 284 298 300 283 270 262 256 262 264 14 34 332 335 5 353 341 351 4 9 5 11 260 274 271 253 244 277 275 118 25 337 329 350 355 328 242 23 324 225 231 299 295 323 5 18
328 325 329 330 331 336 338 339 348 355 354 351 343 328 311 330 8 352 333 330 304 294 10 25 352 351 4 356 352 0 351 336 342 343 326 338 360 336 304 269 276 294 307 351 323 287 267 270 274 283 292 346 22 290 296 26 52 28 2 11 80 351 314 293 316 330 329 241 258 249 185 11 354 352 17 21 20 36 3 331 235 161 353 340 1 16 13
327 326 329 330 333 338 336 335 344 348 343 346 342 322 305 341 19 357 332 325 299 279 4 10 347 337 353 3 359 351 356 6 5 353 335 332 338 328 318 22 20 347 3 357 323 307 296 288 288 297 307 319 246 254 286 43 65 20 339 24 116 69 307 304 7 344 318 273 174 26 10 16 16 26 43 34 26 22 8 3 20 26 15 12 12 12 12
327 325 327 330 335 339 334 332 339 343 338 345 340 319 305 340 3 345 320 293 266 265 297 319 319 309 317 338 349 343 355 10 8 0 348 328 322 336 8 29 17 7 16 351 327 333 330 315 321 318 308 325 347 308 323 351 15 356 3 28 70 45 8 9 36 61 29 44 67 45 20 19 27 35 38 29 23 21 15 13 17 15 10 10 9 3 2
327 325 324 327 332 333 330 328 324 325 339 348 344 329 320 335 350 341 319 281 258 263 273 278 272 259 259 262 294 315 338 6 12 13 7 345 336 4 36 32 2 347 11 8 345 342 335 332 348 335 322 358 358 309 291 295 36 69 47 30 48 54 14 355 64 123 109 77 59 43 27 23 22 20 22 21 18 19 20 15 10 7 2 358 359 359 355
326 324 322 324 327 326 327 324 307 287 326 336 330 318 310 317 344 345 328 291 268 269 258 243 238 243 199 129 243 267 267 30 10 9 0 346 346 5 32 23 352 338 4 359 330 315 317 320 321 309 319 9 359 326 323 17 38 32 1 54 83 49 354 340 115 150 172 69 53 52 37 30 27 18 12 12 11 14 18 15 4 359 357 352 351 350 350
325 323 319 320 323 322 322 320 297 262 286 326 329 317 308 313 343 347 334 306 291 292 270 227 176 92 49 47 244 254 39 5 314 320 339 343 356 9 5 356 342 328 331 329 318 319 329 322 306 296 313 29 2 334 1 40 15 14 22 47 75 23 341 346 42 63 120 105 78 95 151 80 55 48 21 5 4 7 11 12 5 356 353 351 347 343 345
322 321 318 318 320 320 324 328 303 255 254 301 322 317 316 333 356 353 344 328 309 281 262 243 126 128 237 235 216 301 331 295 286 305 322 318 338 10 344 331 328 314 296 293 311 327 317 304 303 306 333 34 359 333 10 50 353 39 59 43 354 334 344 340 342 32 111 112 47 20 146 115 58 55 42 327 332 347 357 1 0 358 356 352 345 339 337
321 319 315 316 318 319 327 335 321 272 257 278 305 302 305 329 360 6 1 347 329 273 255 281 90 124 208 203 80 268 246 238 256 264 272 283 292 313 312 313 318 316 313 328 345 327 301 292 307 320 339 28 354 313 327 45 28 60 66 33 2 15 13 346 332 25 82 80 33 26 43 32 36 45 26 324 313 316 324 328 334 344 347 342 337 331 327
320 314 310 313 319 323 330 335 333 296 247 247 279 287 285 291 346 16 12 355 332 304 301 319 22 132 168 116 304 251 220 217 268 260 256 270 271 272 297 312 315 318 337 2 347 315 317 334 349 352 352 2 359 319 298 64 67 70 58 29 28 42 22 2 9 21 12 15 55 71 37 348 22 42 8 333 297 286 296 299 295 296 299 301 308 314 315
315 307 307 312 316 327 336 332 327 290 242 257 282 284 272 240 134 8 1 354 328 303 298 292 273 192 121 52 339 310 169 187 248 249 248 258 254 239 243 257 278 304 335 348 319 309 339 353 352 14 24 349 320 328 333 48 77 69 49 31 38 43 30 28 34 19 350 357 28 88 145 310 314 333 21 347 285 275 280 279 275 270 266 263 261 262 267
310 299 300 307 317 339 352 346 348 358 293 287 290 286 260 171 110 358 348 348 334 311 296 290 289 110 102 80 333 320 337 41 258 256 244 244 247 246 243 236 243 279 291 289 301 320 335 320 316 68 79 21 316 326 8 64 86 73 47 34 41 42 37 39 35 19 8 7 11 41 40 354 349 40 75 59 261 260 265 279 299 311 294 284 286 277 272
307 293 288 301 320 351 20 30 35 9 329 301 288 289 266 154 29 348 344 347 331 301 281 283 299 154 139 141 241 309 338 23 49 264 239 222 240 251 257 257 247 265 296 304 318 333 330 306 287 135 107 88 341 313 348 98 113 90 58 47 54 53 50 52 36 13 21 33 36 46 41 16 10 33 40 23 345 317 312 331 356 4 6 14 17 2 351
299 280 274 283 295 333 36 43 358 338 330 313 304 336 346 334 336 338 339 336 304 282 274 288 297 211 135 116 125 348 336 324 261 235 203 72 294 255 247 283 289 336 34 355 317 321 334 321 307 312 87 98 325 296 325 65 104 100 76 63 60 48 56 71 53 15 23 46 52 55 51 35 30 28 14 13 21 12 0 3 8 4 4 20 30 14 1
288 262 256 250 247 279 301 259 255 294 303 285 272 342 340 333 337 341 343 330 294 274 277 309 300 207 57 78 121 28 332 307 263 218 160 64 8 327 189 209 301 338 116 176 245 276 308 300 289 293 88 117 254 286 41 71 110 122 104 81 70 43 40 81 82 45 42 48 39 37 45 46 40 27 11 15 22 14 3 1 5 4 3 10 21 15 5
267 235 231 236 264 292 283 256 280 290 282 265 243 17 323 325 337 342 344 334 296 264 258 291 287 275 107 181 142 27 346 327 323 29 69 73 32 321 285 151 102 261 210 220 288 283 267 281 273 256 145 230 252 193 90 133 167 152 118 97 91 63 1 41 40 20 53 61 43 27 26 25 22 17 11 12 14 10 3 359 360 2 1 2 9 7 2
233 210 221 236 244 238 196 274 291 286 278 296 63 28 281 300 321 325 332 329 291 261 232 256 271 303 319 187 109 36 349 327 331 355 14 62 66 303 321 348 287 219 149 44 307 283 260 304 294 271 151 138 255 245 157 169 165 119 85 83 76 41 31 35 8 346 357 42 46 23 12 15 17 11 3 5 7 3 359 359 357 357 357 358 1 359 357
187 190 194 186 204 245 251 261 285 290 306 28 42 263 278 307 313 299 288 275 262 273 329 324 312 357 354 24 70 27 336 311 279 235 23 30 319 303 341 311 285 319 71 14 274 274 270 62 339 283 219 163 225 266 117 127 122 99 82 75 58 37 44 45 16 350 341 353 23 24 8 4 9 5 356 1 5 358 355 357 355 353 354 353 352 352 354
168 171 172 180 222 252 250 183 28 332 331 339 273 269 284 305 299 273 255 243 229 234 286 316 19 20 341 347 64 10 335 337 329 293 55 26 339 330 343 297 298 16 356 272 261 269 25 89 296 283 278 112 104 81 75 79 94 112 116 99 62 40 34 40 30 5 349 350 12 24 6 356 4 3 353 352 357 354 351 351 350 350 350 348 346 348 348
158 163 192 233 245 241 94 52 31 4 303 271 295 295 291 286 274 235 215 251 223 225 279 316 34 11 322 339 54 9 338 339 322 312 49 46 324 310 5 294 302 2 292 278 284 16 35 190 240 265 299 106 120 117 103 92 88 96 95 42 13 9 359 356 357 359 356 353 349 346 339 341 352 354 347 346 350 349 345 343 344 344 341 338 339 342 340
158 188 230 250 256 45 35 34 83 112 207 266 291 304 292 265 321 348 310 316 1 358 317 341 42 16 343 4 58 43 6 340 315 319 39 74 336 348 359 316 317 324 282 279 44 80 265 247 238 242 206 157 146 135 137 147 129 90 74 57 38 7 345 338 335 341 349 338 324 326 330 331 334 339 338 334 333 335 336 337 338 337 334 332 334 334 331
202 231 240 262 70 70 63 85 122 147 284 283 275 305 328 349 2 352 305 22 49 35 351 344 59 59 5 355 10 36 28 360 335 344 6 20 21 4 327 316 359 351 287 282 88 86 283 277 268 266 251 160 138 144 174 147 99 82 69 59 41 347 325 324 326 326 321 311 310 318 324 325 327 330 327 322 321 324 327 329 331 331 327 325 325 326 324
259 279 34 54 58 84 107 140 198 248 289 313 35 14 348 16 42 324 312 31 68 72 15 339 337 66 45 2 344 18 36 18 354 338 329 340 34 354 296 308 351 310 279 287 59 48 288 284 277 282 342 94 122 157 188 125 109 109 124 327 16 346 324 317 316 317 317 316 315 316 321 326 328 324 318 318 320 320 318 319 323 324 321 319 320 322 320
42 55 75 73 69 129 165 210 247 301 337 347 15 17 358 9 18 348 23 39 28 37 45 1 342 9 21 338 313 353 34 15 351 299 287 338 36 326 294 311 319 279 276 301 317 265 256 271 275 275 87 96 109 120 91 103 126 150 205 17 352 305 301 304 311 317 322 322 320 317 318 320 317 312 312 314 314 312 313 315 317 317 316 315 317 316 313
89 81 84 178 211 240 273 287 19 24 1 338 35 54 26 312 314 100 104 90 357 1 43 19 323 320 321 288 296 352 25 5 340 297 301 331 358 300 298 299 275 276 292 306 293 282 280 283 282 252 104 105 112 108 92 91 117 252 305 313 288 284 290 299 308 315 316 313 310 309 311 310 308 307 310 311 310 310 311 311 311 312 313 313 312 310 310
100 303 310 6 89 342 355 25 247 341 18 10 306 29 98 128 144 120 89 55 19 20 31 7 338 336 1 9 340 319 280 143 114 295 302 307 298 291 290 269 265 292 313 304 293 294 291 285 273 129 126 127 117 105 98 83 18 288 288 288 283 282 289 300 307 308 305 303 302 304 305 305 305 306 305 304 306 309 308 305 307 312 312 308 307 309 312
234 186 119 74 21 328 351 111 229 298 51 21 316 356 53 53 54 66 60 19 346 354 19 17 352 335 330 337 329 304 311 37 321 281 283 290 280 270 271 281 298 316 305 288 284 279 272 270 215 131 136 128 106 94 67 347 309 287 287 288 285 287 293 299 300 297 296 297 299 299 299 300 302 303 302 302 303 303 301 302 306 310 307 303 305 309 311
223 130 113 78 15 296 237 125 126 198 94 40 1 18 36 33 40 55 46 358 344 5 10 2 344 320 310 319 326 305 297 298 282 274 288 295 282 276 293 303 305 297 278 272 272 272 275 280 95 108 114 104 98 98 307 306 293 285 286 289 291 296 298 296 293 293 293 294 296 297 299 300 300 298 297 297 298 298 300 303 304 302 299 300 304 305 304
131 313 288 89 84 243 206 112 86 64 61 51 38 41 37 22 51 79 58 5 3 11 351 330 315 295 291 300 293 272 258 254 264 269 275 275 272 277 296 286 269 257 263 265 260 261 268 259 110 112 112 86 321 306 313 316 308 303 302 299 297 300 302 301 302 302 299 298 299 300 300 299 298 297 297 298 299 300 301 301 299 298 300 303 304 302 300
114 283 334 65 80 102 86 90 102 90 64 45 34 50 39 329 318 102 85 33 3 355 338 336 336 315 291 267 264 277 283 287 282 274 258 253 267 273 268 263 257 250 254 259 258 261 269 287 89 88 71 7 321 309 307 305 305 306 302 297 297 299 298 295 294 295 296 298 299 298 297 297 297 298 298 299 299 299 297 296 298 302 304 302 300 298 298
282 209 105 118 162 95 69 95 211 159 107 77 20 68 72 335 20 71 70 27 358 350 332 329 336 324 311 302 289 286 281 269 263 257 231 220 236 241 236 248 258 257 254 257 260 264 276 340 30 17 343 316 302 297 296 297 302 305 302 300 300 299 295 292 291 292 293 295 295 295 297 298 298 297 296 296 296 296 297 300 303 304 301 298 296 295 295
332 12 69 101 149 76 49 287 263 183 108 109 97 67 38 357 23 60 54 6 344 337 313 278 232 240 288 295 287 283 279 264 260 262 250 235 234 238 240 247 256 260 264 269 273 280 303 346 329 295 287 284 286 292 297 302 307 308 302 297 294 292 291 294 296 297 297 296 296 297 298 297 296 296 297 298 299 300 300 301 300 297 294 294 295 295 295
11 62 48 36 45 47 19 335 340 10 23 23 28 38 19 347 17 59 53 7 323 303 296 289 266 256 269 265 258 277 295 290 265 258 255 251 249 249 248 250 256 262 268 274 282 295 306 296 277 279 284 290 300 312 311 306 302 299 294 292 292 293 294 295 295 296 297 298 297 297 296 294 294 296 297 297 299 300 300 300 299 298 298 298 298 298 300
83 91 64 49 52 37 9 358 6 11 8 5 6 13 12 359 7 36 40 347 308 302 314 325 322 301 284 275 269 275 288 294 280 267 263 265 266 265 266 272 277 280 284 290 297 300 300 303 317 324 322 325 332 328 313 300 295 293 292 294 295 296 297 297 297 298 299 298 297 297 297 296 297 299 299 298 298 297 296 296 296 296 297 299 301 304 307